Regional Weather Roundup
Issued by NWS

Home | Current Version | Previous Version | Text Only | Print | Product List | Glossary On
Versions: 1 2 3 4 5 6 7 8 9 10 11 12 13 14 15 16 17 18 19 20 21 22 23 24 25 26 27 28 29 30 31 32 33 34 35 36 37 38 39 40 41 42 43 44 45 46 47 48 49 50
000
ASUS43 KBIS 021020
RWRND

NORTH DAKOTA REGIONAL WEATHER ROUNDUP
NATIONAL WEATHER SERVICE BISMARCK ND
500 AM CDT TUE SEP 02 2014

NOTE: "FAIR" INDICATES FEW OR NO CLOUDS BELOW 12,000 FEET WITH NO
SIGNIFICANT WEATHER AND/OR OBSTRUCTIONS TO VISIBILITY.


NDZ001>003-009>011-017-021100-
NORTHWEST NORTH DAKOTA

CITY           SKY/WX    TMP DP  RH WIND       PRES   REMARKS
WILLISTON      CLOUDY    56  49  77 SW7       29.77F
MINOT          LGT RAIN  57  49  74 W17       29.81R
MINOT AFB      LGT RAIN  55  52  90 S13       29.77F
$$

NDZ018>021-031>035-040>046-021100-
SOUTHWEST NORTH DAKOTA

CITY           SKY/WX    TMP DP  RH WIND       PRES   REMARKS
BISMARCK       PTCLDY    50  48  93 CALM      29.85S
DICKINSON      MOCLDY    51  45  79 SW10      29.83F
GARRISON         N/A     53  51  93 SW7       29.79F
HETTINGER ARPT CLEAR     49  43  80 W5        29.90F
$$

NDZ004>008-012>016-024-026-027-054-021100-
NORTHEAST NORTH DAKOTA

CITY           SKY/WX    TMP DP  RH WIND       PRES   REMARKS
GRAND FORKS    CLEAR     52  48  86 W7        29.76S
GRND FRKS AFB  CLEAR     50  50  98 W6        29.78S
DEVILS LAKE    PTCLDY    57  48  72 W8        29.78S
$$

NDZ022-023-025-028>030-036>039-047>053-021100-
SOUTHEAST NORTH DAKOTA

CITY           SKY/WX    TMP DP  RH WIND       PRES   REMARKS
FARGO          CLEAR     51  49  92 SW6       29.81S
JAMESTOWN      CLEAR     53  49  86 W5        29.83S
$$



USA.gov is the U.S. government's official web portal to all federal, state and local government web resources and services.